Regional Weather Roundup
Issued by NWS

Home | Current Version | Previous Version | Graphics & Text | Print | Product List | Glossary On
Versions: 1 2 3 4 5 6 7 8 9 10 11 12 13 14 15 16 17 18 19 20 21 22 23 24 25 26 27 28 29 30 31 32 33 34 35 36 37 38 39 40 41 42 43 44 45 46 47 48 49 50
000
ASUS43 KIND 240509
RWRIN

WEATHER ROUNDUP FOR INDIANA
NATIONAL WEATHER SERVICE INDIANAPOLIS IN
100 AM EDT SUN SEP 24 2017

NOTE: "FAIR" INDICATES FEW OR NO CLOUDS BELOW 12,000 FEET WITH NO
SIGNIFICANT WEATHER AND/OR OBSTRUCTIONS TO VISIBILITY.

* - STATION DOES NOT REPORT WEATHER SUCH AS PRECIPITATION OR FOG.

+ - STATION NOT QUALITY CONTROLLED BY THE NATIONAL WEATHER SERVICE.
    USE DATA WITH CAUTION...ESPECIALLY DEWPOINT AND RELATIVE
    HUMIDITY OBSERVATIONS.

INZ001>003-010>013-019-020-240600-
NORTHWEST INDIANA

CITY           SKY/WX    TMP DP  RH WIND       PRES   REMARKS
GARY /AIRPORT/ CLEAR     69  65  86 CALM      30.08R
KNOX *+        CLEAR     63  63 100 CALM      30.08S
LA PORTE +     CLEAR     68  64  89 CALM      30.10S
MICHIGAN CITY+ CLEAR     70  64  83 CALM      30.09S
MONTICELLO +   CLEAR     69  67  93 CALM      30.07S
RENSSELAER +   CLEAR     70  61  73 CALM      30.08R
VALPARAISO     CLEAR     71  66  84 E5        30.09S

$$

LMZ046-743>745-240600-
SOUTHERN LAKE MICHIGAN

STATION/POSITION TIME  TEMP    WIND        PRES    WAVE
                       AIR SEA DIR/SP/G            HT
                 (UTC) (F)     (DEG/KT/KT) (MB)    (FT)
BURNS HARBOR     0440   82     130/  7/ 14 1018.6S
MICHIGAN CITY    0440   78     120/  6/  6   N/A
5NW MICH CITY    0500   76 73  140/  6/  6   N/A     0

$$

INZ004-005-014>016-021>024-240600-
NORTH CENTRAL INDIANA

CITY           SKY/WX    TMP DP  RH WIND       PRES   REMARKS
GOSHEN         CLEAR     72  61  68 E6        30.11R
LOGANSPORT +   CLEAR     68  61  77 E7        30.09S
PERU/GRISSOM   CLEAR     71  63  75 E5        30.08S
SOUTH BEND     CLEAR     71  66  84 E5        30.11R
WARSAW +       CLEAR     70  63  78 E3        30.10F

$$

INZ006>009-017-018-025>027-240600-
NORTHEAST INDIANA

CITY           SKY/WX    TMP DP  RH WIND       PRES   REMARKS
AUBURN +       CLEAR     68  61  77 E5        30.12S
FORT WAYNE     CLEAR     70  60  70 CALM      30.11S
HUNTINGTON +   CLEAR     67  62  86 NE3       30.10S
KENDALLVILLE + CLEAR     67  63  85 E3        30.13S

$$

INZ028-029-035-036-043>045-051>053-240600-
WEST CENTRAL INDIANA

CITY           SKY/WX    TMP DP  RH WIND       PRES   REMARKS
GREENCASTLE +  CLEAR     68  61  77 CALM      30.08S
LAFAYETTE      CLEAR     69  66  90 CALM      30.06S
TERRE HAUTE    CLEAR     63  60  90 CALM      30.06S

$$

INZ030>032-037>040-046>048-054>057-064-065-240600-
CENTRAL INDIANA

CITY           SKY/WX    TMP DP  RH WIND       PRES   REMARKS
CP ATTERBURY + CLEAR     63  61  94 CALM      30.08S
FISHERS *+     CLEAR     66  66 100 CALM      30.08S
FRANKFORT +    CLOUDY    68  65  92 CALM      30.09F
GREENWOOD *+   CLEAR     70  68  93 CALM      30.08S
INDIANAPOLIS   CLEAR     75  63  66 CALM      30.07S
-EAGLE CREEK   CLEAR     72  64  76 CALM      30.07S
KOKOMO +       CLEAR     67  63  87 E6        30.10S
MARION +       CLEAR     68  63  83 E5        30.10S
MT COMFORT *+  CLEAR     63  63 100 CALM      30.09S
SHELBYVILLE    CLEAR     68  63  84 E5        30.08R
ZIONSVILLE +     N/A     64  63  96 CALM      30.09S

$$

INZ033-034-041-042-049-050-058-059-240600-
EAST CENTRAL INDIANA

CITY           SKY/WX    TMP DP  RH WIND       PRES   REMARKS
MUNCIE         CLEAR     66  62  87 CALM      30.10S
RICHMOND +     CLEAR     64  61  88 E5        30.12S

$$

INZ060-061-067>069-081>083-085>088-240600-
SOUTHWEST INDIANA

CITY           SKY/WX    TMP DP  RH WIND       PRES   REMARKS
EVANSVILLE     CLEAR     68  65  90 CALM      30.04S
HUNTINGBURG +  CLEAR     68  66  93 CALM      30.04F
WASHINGTON +   CLEAR     64  62  94 CALM      30.04S

$$

INZ062-063-066-070>080-084-089>092-240600-
SOUTH CENTRAL AND SOUTHEAST INDIANA

CITY           SKY/WX    TMP DP  RH WIND       PRES   REMARKS
BEDFORD +      CLEAR     68  63  83 CALM      30.05F
BLOOMINGTON    CLEAR     66  61  84 CALM      30.06F
MADISON *+     CLEAR     64  63  94 NE5       30.09S
NORTH VERNON + CLEAR     63  63 100 CALM      30.08S FOG
SEYMOUR +      CLEAR     66  64  94 CALM      30.06S FOG

$$





USA.gov is the U.S. government's official web portal to all federal, state and local government web resources and services.